Regional Weather Roundup
Issued by NWS Austin/San Antonio, TX

Home | Current Version | Previous Version | Text Only | Print | Product List | Glossary On
Versions: 1 2 3 4 5 6 7 8 9 10 11 12 13 14 15 16 17 18 19 20 21 22 23 24 25 26 27 28 29 30 31 32 33 34 35 36 37 38 39 40 41 42 43 44 45 46 47 48 49 50
000
ASUS44 KEWX 241101
RWREWX
SOUTH TEXAS REGIONAL WEATHER ROUNDUP
NATIONAL WEATHER SERVICE AUSTIN/SAN ANTONIO TX
600 AM CDT SAT AUG 24 2019

NOTE: "FAIR" INDICATED FEW OR NO CLOUDS BELOW 12,000 FEET WITH NO
SIGNIFICANT WEATHER AND/OR OBSTRUCTIONS TO VISIBILITY.

* - THESE STATIONS ARE NOT NWS OR FAA STATIONS...AND ARE NOT SUBJECT
    TO NWS AND FAA QUALITY CONTROL.

TXZ171-172-183>190-241200-
TEXAS HILL COUNTRY AND EDWARDS PLATEAU

CITY           SKY/WX    TMP DP  RH WIND       PRES   REMARKS
JUNCTION       CLOUDY    75  72  90 NE3       29.96S
*LLANO         CLEAR     75  73  94 CALM      29.97F
BURNET         PTCLDY    77  71  82 NE5       29.97S
*HORSESHOE BAY MOCLDY    75  72  88 CALM      29.94S
*KERRVILLE     PTCLDY    74  71  91 CALM      29.94S
*FREDERICKSBRG PTCLDY    74  71  90 NW3       29.95S
*ROCKSPRINGS   PTCLDY    72  70  94 SE5       30.02S
*BOERNE        CLEAR     73  73 100 CALM      29.94S
*CASTROVILLE   CLEAR     77  72  84 SE3       29.92S
HONDO          CLEAR     77  71  82 SE6       29.92R
*UVALDE        CLEAR     74  73  99 CALM      29.92S
DEL RIO        CLEAR     77  72  84 E6        29.89S
LAUGHLIN AFB   CLEAR     75  72  88 E7        29.90S
SPOFFORD       CLEAR     74  72  96 SE5       29.86S
*EAGLE PASS    CLEAR     75  72  88 E6        29.91R
CARRIZO SPRGS  CLEAR     73  73 100 NW3       29.90R
$$

TXZ173-191>194-202-209-217>225-228-241200-
CENTRAL AND SOUTH CENTRAL TEXAS

CITY           SKY/WX    TMP DP  RH WIND       PRES   REMARKS
GEORGETOWN     CLEAR     76  73  91 E5        29.95F
AUSTIN/BERGSTM MOCLDY    77  74  90 E7        29.92S
AUSTIN/MABRY   MOCLDY    78  72  81 VRB3      29.94S
*AUSTIN/EXEC   PTCLDY    75  73  94 E5        29.94S
*LAGO VISTA    CLEAR     74  72  92 CALM      29.95F
SAN MARCOS     CLOUDY    77  73  87 E7        29.93R
NEW BRAUNFELS  CLOUDY    77  72  84 NE6       29.90S
RANDOLPH AFB   MOCLDY    77  73  88 E6        29.90F
SEGUIN         CLOUDY    75  73  94 E6        29.95R
KELLY FIELD    PTCLDY    79  74  85 E5        29.89R
SAN ANTONIO    MOCLDY    77  73  87 SE5       29.91S
STINSON FIELD  PTCLDY    80  75  84 E5        29.88R
PLEASANTON     CLOUDY    77  73  88 CALM      29.90R
*LA GRANGE     MOCLDY    77  77 100 CALM      29.90F
*GIDDINGS      PTCLDY    77  77 100 NE3       29.94S
*GONZALES      CLEAR     76  75  99 NE3       29.90S
$$

TXZ163>164-176>182-195>201-210>213-226-227-235-241200-
SOUTHEAST TEXAS

CITY           SKY/WX    TMP DP  RH WIND       PRES   REMARKS
COLLEGE STN    PTCLDY    78  75  90 NE5       29.94S
*BRYAN         MOCLDY    77  77 100 CALM      29.95F
*CALDWELL      CLOUDY    76  75  94 E3        29.95S
*CROCKETT      CLEAR     73  72  94 CALM      29.99R
*BRENHAM       MOCLDY    76  76 100 CALM      29.94S
HUNTSVILLE     PTCLDY    75  73  93 CALM      29.94S
CONROE         CLEAR     75  73  93 N3        29.93F
HOUSTON BUSH   MOCLDY    77  74  90 N5        29.90F
HOUSTON HOBBY  MOCLDY    78  74  87 N6        29.89F
*HOUSTON SW AP FAIR      74  74 100 CALM      29.91S
PEARLAND       FAIR      77  74  90 N3        29.91F
HOUSTON HOOKS  MOCLDY    76  73  91 N5        29.91F
ELLINGTON FLD  NOT AVBL
SUGAR LAND     FAIR      76  76 100 N3        29.90F
*HOUSTON EXEC  MOCLDY    75  75 100 CALM      29.93S
*CLEVELAND MUN CLOUDY    74  74 100 CALM      29.93F FOG
*WHARTON       PTCLDY    74  74  97 CALM      29.91R
*COLUMBUS      FAIR      75  72  91 CALM      29.92F
*EAGLE LAKE    CLEAR     77  77  98 NE3       29.92R
$$

TXZ214>216-236>238-241200-
THE UPPER TEXAS COAST

CITY           SKY/WX    TMP DP  RH WIND       PRES   REMARKS
*ORANGE        MOCLDY    77  77 100 W6        29.95R
PORT ARTHUR    RAIN      77  75  93 SE5       29.91F
GALVESTON      FAIR      80  78  94 E7        29.90S
ANGLETON       FAIR      76  74  93 NE3       29.89F
*BAY CITY      PTCLDY    79  78  97 CALM      29.89F
PALACIOS       PTCLDY    80  72  76 NW3       29.89S
$$

TXZ229>234-239>247-241200-
TEXAS COASTAL BEND AND RIO GRANDE PLAINS

CITY           SKY/WX    TMP DP  RH WIND       PRES   REMARKS
VICTORIA       CLEAR     77  74  90 CALM      29.89F
*BEEVILLE      NOT AVBL
ROCKPORT       CLEAR     82  78  88 S3        29.87S HX  91
*PORT ARANSAS  CLOUDY    83  80  88 S6        29.89R HX  96
*PORT LAVACA   PTCLDY    81  79  94 CALM      29.89S
*INGLESIDE     LGT RAIN  84  79  87 CALM      29.88R HX  96
CORPUS CHRISTI CLOUDY    80  78  94 SE6       29.87S
CORPUS NAS     MOCLDY    82  82 100 S6        29.87R HX  97
*ROBSTOWN      PTCLDY    79  76  91 SE3       29.88S
ALICE          CLEAR     79  76  90 SE7       29.86S
KINGSVILLE NAS CLEAR     80  76  87 E5        29.86F
COTULLA        MOCLDY    80  72  76 N3        29.89R
LAREDO         CLEAR     81  72  74 NE6       29.87R
$$

TXZ248>255-241200-
DEEP SOUTH TEXAS

CITY           SKY/WX    TMP DP  RH WIND       PRES   REMARKS
BROWNSVILLE    FAIR      84  82  94 SE6       29.85S HX 100
PORT ISABEL    FAIR      82  79  90 SE6       29.85S FOG     HX  92
HARLINGEN      PTCLDY    81  78  91 SE6       29.84F
*HEBBRONVILLE  CLEAR     78  73  87 CALM      29.88S
MCALLEN        CLEAR     83  77  82 E6        29.85S HX  92
*WESLACO       CLEAR     81  76  86 SE3       29.84S
FALFURRIAS     CLEAR     80  76  89 NE5       29.86S
EDINBURG       FAIR      82  76  84 E5        29.85S
*ZAPATA        FAIR      82  73  72 E6        29.86S
$$

TXZ213>215-236>238-242>244-246-247-251-254-255-241200-
CMAN STATIONS

STATION/POSITION TIME  TEMP    WIND        PRES    WAVE
                       AIR SEA DIR/SP/G            HT/PER
                 (UTC) (F)     (DEG/KT/KT) (MB)    (FT/S)
SABINE PASS      1024   81 88  120/ 11/ 13 1014.3
NORTH JETTY/GLS  1024   79 86  360/  5/  6 1011.1
EAGLE POINT      1024   78 84   80/  4/  5 1011.4
MORGANS POINT    1030   79 87   30/  6/  7 1012.3
PORT O`CONNOR    1024   82 88  290/  4/  8 1011.5
PORT ARANSAS     1000   83 86  170/ 12/ 13 1011.2
MALAQUITE BEACH  1024   83 87  150/  9/ 11 1011.0
BAFFIN BAY       1024   83 87  120/  7/  8 1011.4
PORT ISABEL      1024   82 83  170/  2/  3 1011.3
$$



USA.gov is the U.S. government's official web portal to all federal, state and local government web resources and services.